Chamberlain, SD

4:40 PM CDT on August 29, 2016 (GMT -0500)
Chamberlain

Weather History for K9V9 - November, 2012

Change the Weather History Date:

Tuesday, November 13, 2012

  Actual Average Record
Temperature  
Mean Temperature 28 °F -  
Max Temperature 37 °F 43 °F 73 °F (1999)
Min Temperature 18 °F 24 °F -5 °F (2014)
Degree Days  
Heating Degree Days 38    
Moisture  
Dew Point 22 °F    
Average Humidity 76    
Maximum Humidity 85    
Minimum Humidity 65    
Precipitation  
Precipitation 0.00 in - - ()
Sea Level Pressure  
Sea Level Pressure 30.28 in    
Wind  
Wind Speed 3 mph (WSW)    
Max Wind Speed 9 mph    
Max Gust Speed -    
Averages and records for this station are not official NWS values.
T = Trace of Precipitation, MM = Missing Value Source: NWS Daily Summary

Daily Weather History Graph

Daily Weather History Graph

Search for Another Location

Airport or City:

Trip Planner

Search our weather history database for the weather conditions in past years. The results will help you decide how hot, cold, wet, or windy it might be!

Date:

Astronomy

Nov. 13, 2012 Rise Set
Actual Time 7:29 AM CST 5:13 PM CST
Civil Twilight 6:58 AM CST 5:43 PM CST
Nautical Twilight 6:24 AM CST 6:18 PM CST
Astronomical Twilight 5:50 AM CST 6:52 PM CST
Moon 7:10 AM CST (11/13) 5:06 PM CST (11/13)
Length of Visible Light 10h 45m
Length of Day
9h 43m
Waning Crescent, 0% of the Moon is Illuminated
Nov 13
Waning Crescent
Nov 13
New
Nov 20
First Quarter
Nov 28
Full
Dec 6
Last Quarter

Hourly Weather History & Observations

Time (CST) Temp. Windchill Dew Point Humidity Pressure Visibility Wind Dir Wind Speed Gust Speed Precip Events Conditions
12:52 AM 21.9 °F 17.2 °F 16.0 °F 78% 30.30 in - South 3.5 mph - N/A   Unknown
1:52 AM 21.9 °F - 15.1 °F 75% 30.28 in - Calm Calm - N/A   Unknown
2:52 AM 23.0 °F 17.0 °F 16.0 °F 74% 30.28 in - SW 4.6 mph - N/A   Unknown
3:52 AM 23.0 °F - 17.1 °F 78% 30.27 in - Calm Calm - N/A   Unknown
4:52 AM 18.0 °F 12.7 °F 12.9 °F 81% 30.27 in - East 3.5 mph - N/A   Unknown
5:52 AM 19.0 °F - 15.1 °F 85% 30.28 in - Calm Calm - N/A   Unknown
6:52 AM 21.9 °F - 17.1 °F 82% 30.28 in - Calm Calm - N/A   Unknown
7:52 AM 21.0 °F 14.6 °F 17.1 °F 85% 30.28 in - West 4.6 mph - N/A   Unknown
8:52 AM 26.1 °F 20.5 °F 21.0 °F 81% 30.29 in - West 4.6 mph - N/A   Unknown
9:52 AM 28.0 °F 22.8 °F 21.0 °F 75% 30.28 in - West 4.6 mph - N/A   Unknown
10:52 AM 32.0 °F 28.7 °F 21.9 °F 66% 30.27 in - WNW 3.5 mph - N/A   Unknown
11:52 AM 33.1 °F - 24.1 °F 70% 30.28 in - North - - N/A   Unknown
12:52 PM 33.1 °F 25.5 °F 25.0 °F 72% 30.26 in - North 9.2 mph - N/A   Unknown
1:52 PM 35.1 °F 31.0 °F 26.1 °F 70% 30.26 in - West 4.6 mph - N/A   Unknown
2:52 PM 36.0 °F - 26.1 °F 67% 30.25 in - Calm Calm - N/A   Unknown
3:52 PM 37.9 °F - 27.0 °F 65% 30.26 in - Calm Calm - N/A   Unknown
4:52 PM 36.0 °F 32.1 °F 28.0 °F 73% 30.26 in - South 4.6 mph - N/A   Unknown
5:52 PM 33.1 °F 28.7 °F 27.0 °F 78% 30.28 in - WSW 4.6 mph - N/A   Unknown
6:52 PM 34.0 °F 28.8 °F 27.0 °F 75% 30.29 in - WSW 5.8 mph - N/A   Unknown
7:52 PM 36.0 °F 32.1 °F 27.0 °F 70% 30.29 in - West 4.6 mph - N/A   Unknown
8:52 PM 30.9 °F 26.2 °F 25.0 °F 79% 30.29 in - SW 4.6 mph - N/A   Unknown
9:52 PM 30.0 °F 26.5 °F 24.1 °F 79% 30.30 in - South 3.5 mph - N/A   Unknown
10:52 PM 30.0 °F 22.4 °F 24.1 °F 79% 30.29 in - SSW 8.1 mph - N/A   Unknown
11:52 PM 28.0 °F 21.7 °F 21.9 °F 78% 30.28 in - SW 5.8 mph - N/A   Unknown